Location: Moscow
(30.9132°N, 94.8252°W)
Time: 12:31:25
(UTC+00:00)

ATLAS 5 CENTAUR R/B - Pass Details

Date: 15 November 2025
Orbit: 373 x 1090 km, 63.3° (Epoch: 10 December)

Event Time Altitude Azimuth Distance (km) Brightness Sun altitude
Rises 00:16:59 0° 340° (NNW) 2,919 5.1 -12.1°
Reaches altitude 10° 00:19:11 10° 347° (NNW) 2,119 4.3 -12.6°
Maximum altitude 00:23:50 42° 59° (ENE) 1,104 2.4 -13.5°
Drops below altitude 10° 00:29:28 10° 129° (SE) 2,575 4.4 -14.7°
Sets 00:32:23 0° 136° (SE) 3,623 5.2 -15.3°
